CW4427 Weather Reports


Display with metric or nautical units.
time (UTC)temp
F
wind
direction
speed
MPH
gust
MPH
rain 1hr
in
rain 24hr
in
rain mn
in
humidity
%
barometer
mb
20260906105350 77 33 0.0 0.0 0.00 0.00 0.00 90 1012.0
20260906104850 77 33 0.0 0.0 0.00 0.00 0.00 89 1011.9
20260906104350 77 33 0.0 0.0 0.00 0.00 0.00 90 1011.9
20260906103850 77 33 0.0 0.0 0.00 0.00 0.00 90 1011.8
20260906102850 77 33 0.0 0.0 0.00 0.00 0.00 90 1011.7
20260906102350 77 33 0.0 0.0 0.00 0.00 0.00 90 1011.6
20260906101850 77 33 0.0 0.0 0.00 0.00 0.00 90 1011.7
20260906101350 78 33 0.0 0.0 0.00 0.00 0.00 90 1011.6
20260906100849 78 33 0.0 2.0 0.00 0.00 0.00 90 1011.6
20260906095850 77 33 0.0 2.0 0.00 0.00 0.00 91 1011.6
20260906095350 77 189 0.0 0.0 0.00 0.00 0.00 91 1011.6
20260906094350 77 189 0.0 0.0 0.00 0.00 0.00 90 1011.6
20260906093850 77 189 0.0 0.0 0.00 0.00 0.00 90 1011.6
20260906093350 77 189 0.0 0.0 0.00 0.00 0.00 89 1011.6
20260906092850 77 189 0.0 0.0 0.00 0.00 0.00 89 1011.6
20260906092350 77 189 0.0 0.0 0.00 0.00 0.00 89 1011.4
20260906091849 77 189 0.0 0.0 0.00 0.00 0.00 89 1011.4
20260906091349 77 189 0.0 0.0 0.00 0.00 0.00 89 1011.4
20260906090850 78 189 0.0 0.0 0.00 0.00 0.00 89 1011.5
20260906085850 78 189 0.0 0.0 0.00 0.00 0.00 89 1011.5
20260906085349 78 189 0.0 0.0 0.00 0.00 0.00 88 1011.6
20260906084850 78 189 0.0 0.0 0.00 0.00 0.00 88 1011.7
20260906084350 78 189 0.0 0.0 0.00 0.00 0.00 88 1011.5
20260906083849 78 189 0.0 0.0 0.00 0.00 0.00 88 1011.6
20260906083349 78 189 0.0 0.0 0.00 0.00 0.00 88 1011.5
20260906082849 78 189 0.0 0.0 0.00 0.00 0.00 87 1011.5
20260906082349 78 189 0.0 0.0 0.00 0.00 0.00 87 1011.5
20260906081849 78 189 0.0 0.0 0.00 0.00 0.00 87 1011.6
20260906081349 78 189 0.0 0.0 0.00 0.00 0.00 87 1011.6
20260906080849 78 189 0.0 0.0 0.00 0.00 0.00 87 1011.6
20260906075349 79 189 0.0 0.0 0.00 0.00 0.00 86 1011.6
20260906074349 79 189 0.0 0.0 0.00 0.00 0.00 86 1011.7
20260906073849 79 189 0.0 0.0 0.00 0.00 0.00 85 1011.6
20260906073349 79 189 0.0 0.0 0.00 0.00 0.00 85 1011.5
20260906072849 79 189 0.0 0.0 0.00 0.00 0.00 85 1011.5
20260906071849 79 189 0.0 0.0 0.00 0.00 0.00 85 1011.6
20260906071349 79 189 0.0 1.0 0.00 0.00 0.00 85 1011.5
20260906070850 79 189 0.0 1.0 0.00 0.00 0.00 85 1011.5
20260906070349 79 189 0.0 2.0 0.00 0.00 0.00 85 1011.4
20260906065849 79 189 0.0 4.0 0.00 0.00 0.00 85 1011.5
20260906065349 79 189 2.0 4.0 0.00 0.00 0.00 85 1011.4
20260906064849 79 73 0.0 0.0 0.00 0.00 0.00 85 1011.4
20260906064349 79 73 0.0 0.0 0.00 0.00 0.00 85 1011.3
20260906063849 79 74 0.0 0.0 0.00 0.00 0.00 85 1011.3
20260906063349 79 73 0.0 0.0 0.00 0.00 0.00 85 1011.4
20260906062349 79 73 0.0 0.0 0.00 0.00 0.00 85 1011.5
20260906061849 79 73 0.0 0.0 0.00 0.00 0.00 85 1011.5
20260906060849 79 73 0.0 0.0 0.00 0.00 0.00 84 1011.8
20260906060349 79 73 0.0 0.0 0.00 0.00 0.00 84 1011.8
20260906055849 79 73 0.0 0.0 0.00 0.00 0.00 84 1011.9
20260906055349 79 73 0.0 0.0 0.00 0.00 0.00 84 1011.9
20260906054849 80 73 0.0 0.0 0.00 0.00 0.00 84 1011.9
20260906053349 80 73 0.0 0.0 0.00 0.00 0.00 83 1011.9
20260906051849 80 73 0.0 0.0 0.00 0.00 0.00 83 1011.8
20260906051349 80 73 0.0 1.0 0.00 0.00 0.00 83 1011.7
20260906050849 80 73 0.0 1.0 0.00 0.00 0.00 83 1011.7
20260906050349 80 73 0.0 0.0 0.00 0.00 0.00 83 1011.8
20260906045849 80 74 0.0 0.0 0.00 0.00 0.00 83 1011.8
20260906045349 80 74 0.0 0.0 0.00 0.00 0.00 83 1011.6
20260906044848 80 74 0.0 0.0 0.00 0.00 0.00 83 1011.7
20260906044349 80 73 0.0 0.0 0.00 0.00 0.00 82 1011.6
20260906043849 80 73 0.0 0.0 0.00 0.00 0.00 82 1011.6
20260906043349 80 74 0.0 0.0 0.00 0.00 0.00 82 1011.5
20260906042848 81 73 0.0 0.0 0.00 0.00 0.00 82 1011.5
20260906042349 81 73 0.0 0.0 0.00 0.00 0.00 81 1011.5
20260906041849 81 73 0.0 0.0 0.00 0.00 0.00 81 1011.5
20260906041349 81 74 0.0 0.0 0.00 0.00 0.00 81 1011.6
20260906040348 81 74 0.0 0.0 0.00 0.00 0.00 80 1011.5
20260906035849 81 74 0.0 0.0 0.00 0.00 0.00 81 1011.5
20260906035348 81 73 0.0 0.0 0.00 0.00 0.00 80 1011.4
20260906034849 81 74 0.0 0.0 0.00 0.00 0.00 80 1011.5
20260906034349 81 73 0.0 0.0 0.00 0.00 0.00 80 1011.5
20260906033848 81 73 0.0 0.0 0.00 0.00 0.00 79 1011.6
20260906033348 81 73 0.0 0.0 0.00 0.00 0.00 79 1011.6
20260906032848 82 74 0.0 0.0 0.00 0.00 0.00 79 1011.8
20260906032348 82 73 0.0 0.0 0.00 0.00 0.00 78 1011.8
20260906031849 82 73 0.0 0.0 0.00 0.00 0.00 78 1011.6
20260906031349 82 73 0.0 0.0 0.00 0.00 0.00 78 1011.6
20260906030849 82 73 0.0 0.0 0.00 0.00 0.00 78 1011.7
20260906030349 82 74 0.0 0.0 0.00 0.00 0.00 77 1011.5
20260906025849 83 73 0.0 0.0 0.00 0.00 0.00 77 1011.5
20260906025348 83 74 0.0 0.0 0.00 0.00 0.00 76 1011.5
20260906024848 83 74 0.0 0.0 0.00 0.00 0.00 76 1011.5
20260906024348 83 74 0.0 0.0 0.00 0.00 0.00 75 1011.5
20260906023849 83 74 0.0 0.0 0.00 0.00 0.00 75 1011.5
20260906022848 83 74 0.0 0.0 0.00 0.00 0.00 75 1011.3
20260906021848 84 73 0.0 0.0 0.00 0.00 0.00 74 1011.2
20260906021348 84 73 0.0 0.0 0.00 0.00 0.00 74 1011.2
20260906020848 84 73 0.0 0.0 0.00 0.00 0.00 74 1011.2
20260906020348 84 74 0.0 0.0 0.00 0.00 0.00 74 1011.1
20260906015848 84 74 0.0 0.0 0.00 0.00 0.00 73 1011.0
20260906015348 84 74 0.0 0.0 0.00 0.00 0.00 72 1010.9
20260906014848 85 74 0.0 0.0 0.00 0.00 0.00 72 1011.0
20260906014348 85 73 0.0 0.0 0.00 0.00 0.00 71 1010.9
20260906013848 85 74 0.0 0.0 0.00 0.00 0.00 70 1010.9
20260906013348 85 74 0.0 0.0 0.00 0.00 0.00 70 1010.8
20260906012848 85 74 0.0 0.0 0.00 0.00 0.00 70 1010.6
20260906012348 85 73 0.0 0.0 0.00 0.00 0.00 69 1010.6
20260906011848 85 74 0.0 0.0 0.00 0.00 0.00 70 1010.5
20260906011348 86 74 0.0 0.0 0.00 0.00 0.00 68 1010.4
20260906010348 86 74 0.0 0.0 0.00 0.00 0.00 67 1010.3
20260906005848 87 74 0.0 0.0 0.00 0.00 0.00 66 1010.3
20260906005348 87 74 0.0 0.0 0.00 0.00 0.00 66 1010.3
20260906004848 88 74 0.0 0.0 0.00 0.00 0.00 65 1010.4
20260906004348 88 73 0.0 0.0 0.00 0.00 0.00 65 1010.4
20260906003848 88 74 0.0 0.0 0.00 0.00 0.00 65 1010.3
20260906002848 89 73 0.0 0.0 0.00 0.00 0.00 63 1010.3
20260906002348 89 74 0.0 0.0 0.00 0.00 0.00 62 1010.3
20260906001848 90 74 0.0 0.0 0.00 0.00 0.00 61 1010.4
20260906001348 90 74 0.0 0.0 0.00 0.00 0.00 60 1010.3
20260906000848 91 73 0.0 0.0 0.00 0.00 0.00 59 1010.3
20260906000348 91 73 0.0 0.0 0.00 0.00 0.00 58 1010.3
20260905235848 92 74 0.0 0.0 0.00 0.00 0.00 57 1010.3
20260905235348 92 73 0.0 0.0 0.00 0.00 0.00 58 1010.4
20260905234848 92 73 0.0 0.0 0.00 0.00 0.00 59 1010.4
20260905234348 93 73 0.0 0.0 0.00 0.00 0.00 57 1010.4
20260905233848 93 73 0.0 0.0 0.00 0.00 0.00 56 1010.5
20260905233348 95 73 0.0 0.0 0.00 0.00 0.00 54 1010.4
20260905232848 95 73 0.0 1.0 0.00 0.00 0.00 55 1010.4
20260905232348 95 56 0.0 1.0 0.00 0.00 0.00 52 1010.3
20260905230848 97 34 2.0 4.0 0.00 0.00 0.00 48 1010.5
20260905230348 97 49 0.0 4.0 0.00 0.00 0.00 49 1010.4
20260905225848 97 78 0.0 3.0 0.00 0.00 0.00 50 1010.6
20260905225348 97 212 0.0 3.0 0.00 0.00 0.00 49 1010.4
20260905224848 97 71 2.0 4.0 0.00 0.00 0.00 49 1010.4
20260905224348 97 123 2.0 4.0 0.00 0.00 0.00 48 1010.5
20260905223848 97 68 1.0 5.0 0.00 0.00 0.00 49 1010.4
20260905223347 97 51 3.0 8.0 0.00 0.00 0.00 48 1010.4
20260905222848 97 97 3.0 8.0 0.00 0.00 0.00 48 1010.4
20260905222347 97 92 7.0 10.0 0.00 0.00 0.00 48 1010.5
20260905221848 98 25 2.0 10.0 0.00 0.00 0.00 49 1010.5
20260905221347 98 22 5.0 9.0 0.00 0.00 0.00 48 1010.6
20260905220848 98 42 5.0 9.0 0.00 0.00 0.00 48 1010.6
20260905220348 98 158 5.0 9.0 0.00 0.00 0.00 48 1010.6
20260905215848 98 23 1.0 9.0 0.00 0.00 0.00 48 1010.5
20260905215348 98 55 4.0 9.0 0.00 0.00 0.00 47 1010.5
20260905214848 99 107 3.0 10.0 0.00 0.00 0.00 46 1010.5
20260905214348 99 32 5.0 10.0 0.00 0.00 0.00 45 1010.5
20260905213348 100 142 1.0 6.0 0.00 0.00 0.00 42 1010.5
20260905212848 100 111 6.0 6.0 0.00 0.00 0.00 43 1010.5
20260905212347 100 50 0.0 7.0 0.00 0.00 0.00 41 1010.5
20260905211347 100 42 1.0 7.0 0.00 0.00 0.00 42 1010.6
20260905210847 101 24 3.0 8.0 0.00 0.00 0.00 42 1010.8
20260905210347 100 173 1.0 8.0 0.00 0.00 0.00 42 1010.7
20260905205848 100 109 4.0 7.0 0.00 0.00 0.00 43 1010.9
20260905204847 101 57 0.0 10.0 0.00 0.00 0.00 43 1011.0
20260905204348 100 28 2.0 10.0 0.00 0.00 0.00 43 1011.0
20260905203847 100 11 2.0 10.0 0.00 0.00 0.00 43 1010.9
20260905203347 99 28 2.0 14.0 0.00 0.00 0.00 43 1011.2
20260905202348 99 29 6.0 10.0 0.00 0.00 0.00 44 1011.4
20260905201847 98 84 5.0 8.0 0.00 0.00 0.00 44 1011.4
20260905200847 99 350 2.0 7.0 0.00 0.00 0.00 43 1011.5
20260905200347 100 76 1.0 10.0 0.00 0.00 0.00 42 1011.5
20260905195847 101 132 3.0 10.0 0.00 0.00 0.00 40 1011.5
20260905195347 101 207 1.0 8.0 0.00 0.00 0.00 42 1011.8
20260905193847 100 121 8.0 9.0 0.00 0.00 0.00 42 1011.9
20260905193347 100 116 6.0 8.0 0.00 0.00 0.00 43 1012.0
20260905192847 101 109 3.0 7.0 0.00 0.00 0.00 43 1012.1
20260905192347 99 40 2.0 5.0 0.00 0.00 0.00 45 1012.1
20260905191847 99 31 3.0 8.0 0.00 0.00 0.00 44 1012.1
20260905191347 100 127 4.0 9.0 0.00 0.00 0.00 42 1012.2
20260905190847 100 26 3.0 9.0 0.00 0.00 0.00 43 1012.4
20260905190347 101 22 4.0 7.0 0.00 0.00 0.00 42 1012.3
20260905184847 100 117 7.0 12.0 0.00 0.00 0.00 45 1012.5
20260905184347 99 142 0.0 10.0 0.00 0.00 0.00 47 1012.5
20260905183847 99 28 2.0 11.0 0.00 0.00 0.00 46 1012.6
20260905183347 100 43 5.0 11.0 0.00 0.00 0.00 46 1012.6
20260905182347 100 24 3.0 11.0 0.00 0.00 0.00 45 1012.8
20260905181347 100 99 0.0 9.0 0.00 0.00 0.00 45 1012.9
20260905180347 99 53 2.0 10.0 0.00 0.00 0.00 46 1012.9
20260905175847 99 25 0.0 12.0 0.00 0.00 0.00 45 1012.9
20260905175347 100 88 3.0 12.0 0.00 0.00 0.00 45 1013.0
20260905174846 100 360 4.0 9.0 0.00 0.00 0.00 46 1013.1
20260905174347 101 344 2.0 8.0 0.00 0.00 0.00 52 1013.1
20260905172846 99 105 6.0 9.0 0.00 0.00 0.00 48 1013.2
20260905172346 99 58 7.0 9.0 0.00 0.00 0.00 47 1013.3
20260905171847 98 12 2.0 8.0 0.00 0.00 0.00 51 1013.2
20260905171346 99 237 3.0 8.0 0.00 0.00 0.00 54 1013.2
20260905170346 98 106 4.0 6.0 0.00 0.00 0.00 52 1013.5
20260905165846 98 30 3.0 6.0 0.00 0.00 0.00 52 1013.5
20260905165346 97 103 2.0 6.0 0.00 0.00 0.00 52 1013.5
20260905164846 98 43 0.0 9.0 0.00 0.00 0.00 52 1013.6
20260905164347 97 11 4.0 9.0 0.00 0.00 0.00 53 1013.8
20260905163846 96 117 6.0 6.0 0.00 0.00 0.00 55 1013.8
20260905163347 96 65 2.0 5.0 0.00 0.00 0.00 55 1013.9
20260905162846 96 24 2.0 6.0 0.00 0.00 0.00 56 1013.9
20260905162347 97 42 4.0 6.0 0.00 0.00 0.00 53 1014.0
20260905161846 97 5 1.0 6.0 0.00 0.00 0.00 55 1014.2
20260905161346 98 263 0.0 6.0 0.00 0.00 0.00 58 1014.1
20260905160846 96 325 1.0 8.0 0.00 0.00 0.00 55 1014.1
20260905160347 96 331 0.0 8.0 0.00 0.00 0.00 58 1014.1
20260905155846 96 42 1.0 5.0 0.00 0.00 0.00 56 1014.1
20260905155346 95 61 1.0 8.0 0.00 0.00 0.00 57 1014.2
20260905154846 95 24 5.0 8.0 0.00 0.00 0.00 59 1014.2
20260905154346 94 13 1.0 5.0 0.00 0.00 0.00 59 1014.2
20260905153846 94 284 3.0 5.0 0.00 0.00 0.00 60 1014.1
20260905153346 93 336 1.0 6.0 0.00 0.00 0.00 61 1014.1
20260905152846 93 17 1.0 6.0 0.00 0.00 0.00 62 1014.2
20260905152347 93 99 2.0 3.0 0.00 0.00 0.00 61 1014.2
20260905151847 94 273 0.0 3.0 0.00 0.00 0.00 61 1014.2
20260905151346 94 14 0.0 3.0 0.00 0.00 0.00 64 1014.2
20260905145846 92 15 2.0 4.0 0.00 0.00 0.00 63 1014.4
20260905145346 91 32 0.0 4.0 0.00 0.00 0.00 64 1014.3
20260905144846 91 41 3.0 4.0 0.00 0.00 0.00 63 1014.3
20260905144346 91 38 2.0 4.0 0.00 0.00 0.00 63 1014.2
20260905142346 90 40 2.0 3.0 0.00 0.00 0.00 65 1014.1
20260905141846 90 65 1.0 3.0 0.00 0.00 0.00 65 1014.1
20260905141346 90 30 0.0 0.0 0.00 0.00 0.00 67 1014.1
20260905140846 89 109 0.0 0.0 0.00 0.00 0.00 69 1014.1
20260905140346 89 253 0.0 0.0 0.00 0.00 0.00 70 1014.1
20260905134846 89 286 1.0 2.0 0.00 0.00 0.00 68 1014.1
20260905134346 88 311 0.0 0.0 0.00 0.00 0.00 69 1014.0
20260905133846 87 302 0.0 0.0 0.00 0.00 0.00 71 1014.1
20260905132846 85 164 0.0 0.0 0.00 0.00 0.00 77 1014.0
20260905132346 84 164 0.0 0.0 0.00 0.00 0.00 79 1014.0
20260905131846 83 164 0.0 0.0 0.00 0.00 0.00 79 1014.0
20260905131346 83 164 0.0 0.0 0.00 0.00 0.00 80 1014.1
20260905130846 83 164 0.0 0.0 0.00 0.00 0.00 81 1014.0
20260905130346 82 164 0.0 0.0 0.00 0.00 0.00 81 1013.9
20260905125846 82 164 0.0 0.0 0.00 0.00 0.00 83 1013.9
20260905125346 81 164 0.0 0.0 0.00 0.00 0.00 83 1014.1
20260905124846 80 164 0.0 0.0 0.00 0.00 0.00 84 1014.0
20260905124346 79 164 0.0 0.0 0.00 0.00 0.00 85 1013.9
20260905123346 78 164 0.0 0.0 0.00 0.00 0.00 87 1013.8
20260905122845 78 164 0.0 0.0 0.00 0.00 0.00 88 1013.7
20260905122346 77 164 0.0 0.0 0.00 0.00 0.00 87 1013.7
20260905121846 78 164 0.0 0.0 0.00 0.00 0.00 87 1013.6
20260905120846 77 164 0.0 0.0 0.00 0.00 0.00 88 1013.6
20260905120346 77 164 0.0 0.0 0.00 0.00 0.00 88 1013.5
20260905115846 77 164 0.0 0.0 0.00 0.00 0.00 88 1013.5
20260905115346 77 164 0.0 0.0 0.00 0.00 0.00 89 1013.6
20260905114846 76 164 0.0 0.0 0.00 0.00 0.00 89 1013.5
20260905114346 76 164 0.0 0.0 0.00 0.00 0.00 89 1013.5
20260905113346 76 164 0.0 0.0 0.00 0.00 0.00 89 1013.2
20260905112345 76 164 0.0 0.0 0.00 0.00 0.00 89 1013.2
20260905111346 76 164 0.0 0.0 0.00 0.00 0.00 89 1013.3
20260905110845 76 164 0.0 0.0 0.00 0.00 0.00 89 1013.2
20260905110346 76 164 0.0 0.0 0.00 0.00 0.00 89 1013.2
20260905105846 76 164 0.0 0.0 0.00 0.00 0.00 89 1013.1